owner,sensor,date,latitude,longitude,vertical_datum,direction_of_sea_water_velocity,sea_water_speed,upward_sea_water_velocity,qcFlag 
TABS,ioos:station:wmo:42048:1,1997-03-01T00:00:00Z,27.9396,-96.8429,2.0,224.367839,67.32773054,-99999.0,'11111222,11111222,99999999' 
TABS,ioos:station:wmo:42048:1,1997-03-01T00:30:00Z,27.9396,-96.8429,2.0,222.9072874,60.6182555,-99999.0,'11111222,11111222,99999999' 
TABS,ioos:station:wmo:42048:1,1997-03-01T01:00:00Z,27.9396,-96.8429,2.0,225.5607086,64.27201646,-99999.0,'11111222,11111222,99999999' 
TABS,ioos:station:wmo:42048:1,1997-03-01T01:30:00Z,27.9396,-96.8429,2.0,225.513748,59.10943495,-99999.0,'11111222,11111222,99999999' 
TABS,ioos:station:wmo:42048:1,1997-03-01T02:00:00Z,27.9396,-96.8429,2.0,223.1060695,57.34939407,-99999.0,'11111222,11111222,99999999' 
TABS,ioos:station:wmo:42048:1,1997-03-01T02:30:00Z,27.9396,-96.8429,2.0,221.514081,57.10551725,-99999.0,'11111222,11111222,99999999' 
TABS,ioos:station:wmo:42048:1,1997-03-01T03:00:00Z,27.9396,-96.8429,2.0,224.67744,56.57650838,-99999.0,'11111222,11111222,99999999' 
TABS,ioos:station:wmo:42048:1,1997-03-01T03:30:00Z,27.9396,-96.8429,2.0,229.3023328,57.58644024,-99999.0,'11111222,11111222,99999999' 
TABS,ioos:station:wmo:42048:1,1997-03-01T04:00:00Z,27.9396,-96.8429,2.0,231.6998227,58.6662697,-99999.0,'11111222,11111222,99999999' 
TABS,ioos:station:wmo:42048:1,1997-03-01T04:30:00Z,27.9396,-96.8429,2.0,231.1114769,58.37821597,-99999.0,'11111222,11111222,99999999' 
TABS,ioos:station:wmo:42048:1,1997-03-01T05:00:00Z,27.9396,-96.8429,2.0,230.4507398,55.45460937,-99999.0,'11111222,11111222,99999999' 
TABS,ioos:station:wmo:42048:1,1997-03-01T05:30:00Z,27.9396,-96.8429,2.0,230.521273,56.95301309,-99999.0,'11111222,11111222,99999999' 
TABS,ioos:station:wmo:42048:1,1997-03-01T06:00:00Z,27.9396,-96.8429,2.0,228.50171,55.10166059,-99999.0,'11111222,11111222,99999999' 
TABS,ioos:station:wmo:42048:1,1997-03-01T06:30:00Z,27.9396,-96.8429,2.0,230.4548595,54.29716199,-99999.0,'11111222,11111222,99999999' 
TABS,ioos:station:wmo:42048:1,1997-03-01T07:00:00Z,27.9396,-96.8429,2.0,227.0766135,52.28954198,-99999.0,'11111222,11111222,99999999' 
TABS,ioos:station:wmo:42048:1,1997-03-01T07:30:00Z,27.9396,-96.8429,2.0,228.622428,48.45586136,-99999.0,'11111222,11111222,99999999' 
TABS,ioos:station:wmo:42048:1,1997-03-01T08:00:00Z,27.9396,-96.8429,2.0,228.7393965,48.56851861,-99999.0,'11111222,11111222,99999999' 
TABS,ioos:station:wmo:42048:1,1997-03-01T08:30:00Z,27.9396,-96.8429,2.0,228.5321871,46.13444917,-99999.0,'11111222,11111222,99999999' 
TABS,ioos:station:wmo:42048:1,1997-03-01T09:00:00Z,27.9396,-96.8429,2.0,228.1593883,45.7982194,-99999.0,'11111222,11111222,99999999' 
TABS,ioos:station:wmo:42048:1,1997-03-01T09:30:00Z,27.9396,-96.8429,2.0,228.8302531,45.72468043,-99999.0,'11111222,11111222,99999999' 
TABS,ioos:station:wmo:42048:1,1997-03-01T10:00:00Z,27.9396,-96.8429,2.0,228.1252929,46.42698569,-99999.0,'11111222,11111222,99999999' 
TABS,ioos:station:wmo:42048:1,1997-03-01T10:30:00Z,27.9396,-96.8429,2.0,226.9217597,43.8511505,-99999.0,'11111222,11111222,99999999' 
TABS,ioos:station:wmo:42048:1,1997-03-01T11:00:00Z,27.9396,-96.8429,2.0,227.3814578,40.49563433,-99999.0,'11111222,11111222,99999999' 
TABS,ioos:station:wmo:42048:1,1997-03-01T11:30:00Z,27.9396,-96.8429,2.0,226.460941,41.31554308,-99999.0,'11111222,11111222,99999999' 
TABS,ioos:station:wmo:42048:1,1997-03-01T12:00:00Z,27.9396,-96.8429,2.0,224.5638002,41.82657648,-99999.0,'11111222,11111222,99999999' 
TABS,ioos:station:wmo:42048:1,1997-03-01T12:30:00Z,27.9396,-96.8429,2.0,226.628939,44.26863901,-99999.0,'11111222,11111222,99999999' 
TABS,ioos:station:wmo:42048:1,1997-03-01T13:00:00Z,27.9396,-96.8429,2.0,224.9996843,43.61434626,-99999.0,'11111222,11111222,99999999' 
TABS,ioos:station:wmo:42048:1,1997-03-01T13:30:00Z,27.9396,-96.8429,2.0,223.9405876,45.5242408,-99999.0,'11111222,11111222,99999999' 
TABS,ioos:station:wmo:42048:1,1997-03-01T14:00:00Z,27.9396,-96.8429,2.0,225.7826007,46.57440069,-99999.0,'11111222,11111222,99999999' 
TABS,ioos:station:wmo:42048:1,1997-03-01T14:30:00Z,27.9396,-96.8429,2.0,223.3993638,45.322009,-99999.0,'11111222,11111222,99999999' 
TABS,ioos:station:wmo:42048:1,1997-03-01T15:00:00Z,27.9396,-96.8429,2.0,220.8308407,47.85632874,-99999.0,'11111222,11111222,99999999' 
TABS,ioos:station:wmo:42048:1,1997-03-01T15:30:00Z,27.9396,-96.8429,2.0,224.0842177,46.46991823,-99999.0,'11111222,11111222,99999999' 
TABS,ioos:station:wmo:42048:1,1997-03-01T16:00:00Z,27.9396,-96.8429,2.0,221.2547659,46.76891275,-99999.0,'11111222,11111222,99999999' 
TABS,ioos:station:wmo:42048:1,1997-03-01T16:30:00Z,27.9396,-96.8429,2.0,218.2349632,47.42346466,-99999.0,'11111222,11111222,99999999' 
TABS,ioos:station:wmo:42048:1,1997-03-01T17:00:00Z,27.9396,-96.8429,2.0,217.3036506,39.33712877,-99999.0,'11111222,11111222,99999999' 
TABS,ioos:station:wmo:42048:1,1997-03-01T17:30:00Z,27.9396,-96.8429,2.0,219.4458027,42.44890222,-99999.0,'11111222,11111222,99999999' 
TABS,ioos:station:wmo:42048:1,1997-03-01T18:00:00Z,27.9396,-96.8429,2.0,217.3445887,40.28938446,-99999.0,'11111222,11111222,99999999' 
TABS,ioos:station:wmo:42048:1,1997-03-01T18:30:00Z,27.9396,-96.8429,2.0,216.2541963,47.11071746,-99999.0,'11111222,11111222,99999999' 
TABS,ioos:station:wmo:42048:1,1997-03-01T19:00:00Z,27.9396,-96.8429,2.0,216.6792507,45.15024917,-99999.0,'11111222,11111222,99999999' 
TABS,ioos:station:wmo:42048:1,1997-03-01T19:30:00Z,27.9396,-96.8429,2.0,215.1145458,46.62587265,-99999.0,'11111222,11111222,99999999' 
TABS,ioos:station:wmo:42048:1,1997-03-01T20:00:00Z,27.9396,-96.8429,2.0,213.7332829,47.48512399,-99999.0,'11111222,11111222,99999999' 
TABS,ioos:station:wmo:42048:1,1997-03-01T20:30:00Z,27.9396,-96.8429,2.0,212.5889386,49.51613171,-99999.0,'11111222,11111222,99999999' 
TABS,ioos:station:wmo:42048:1,1997-03-01T21:00:00Z,27.9396,-96.8429,2.0,211.4471832,48.55126466,-99999.0,'11111222,11111222,99999999' 
TABS,ioos:station:wmo:42048:1,1997-03-01T21:30:00Z,27.9396,-96.8429,2.0,207.9624951,46.38537916,-99999.0,'11111222,11111222,99999999' 
TABS,ioos:station:wmo:42048:1,1997-03-01T22:00:00Z,27.9396,-96.8429,2.0,211.29027,50.21388752,-99999.0,'11111222,11111222,99999999' 
TABS,ioos:station:wmo:42048:1,1997-03-01T22:30:00Z,27.9396,-96.8429,2.0,209.0133294,42.08097076,-99999.0,'11111222,11111222,99999999' 
TABS,ioos:station:wmo:42048:1,1997-03-01T23:00:00Z,27.9396,-96.8429,2.0,210.192798,49.47152716,-99999.0,'11111222,11111222,99999999' 
TABS,ioos:station:wmo:42048:1,1997-03-01T23:30:00Z,27.9396,-96.8429,2.0,207.7115986,53.17987683,-99999.0,'11111222,11111222,99999999' 
TABS,ioos:station:wmo:42048:1,1997-03-02T00:00:00Z,27.9396,-96.8429,2.0,206.7173282,48.71067747,-99999.0,'11111222,11111222,99999999' 
TABS,ioos:station:wmo:42048:1,1997-03-02T00:30:00Z,27.9396,-96.8429,2.0,212.1951138,53.6966079,-99999.0,'11111222,11111222,99999999' 
TABS,ioos:station:wmo:42048:1,1997-03-02T01:00:00Z,27.9396,-96.8429,2.0,208.613811,50.40636964,-99999.0,'11111222,11111222,99999999' 
TABS,ioos:station:wmo:42048:1,1997-03-02T01:30:00Z,27.9396,-96.8429,2.0,212.125226,43.98470871,-99999.0,'11111222,11111222,99999999' 
TABS,ioos:station:wmo:42048:1,1997-03-02T02:00:00Z,27.9396,-96.8429,2.0,212.0325004,39.89408477,-99999.0,'11111222,11111222,99999999' 
TABS,ioos:station:wmo:42048:1,1997-03-02T02:30:00Z,27.9396,-96.8429,2.0,215.8994306,32.01058887,-99999.0,'11111222,11111222,99999999' 
TABS,ioos:station:wmo:42048:1,1997-03-02T03:00:00Z,27.9396,-96.8429,2.0,230.516109,16.40306374,-99999.0,'11111222,11111222,99999999' 
TABS,ioos:station:wmo:42048:1,1997-03-02T03:30:00Z,27.9396,-96.8429,2.0,235.9633612,13.31027423,-99999.0,'11111222,11111222,99999999' 
TABS,ioos:station:wmo:42048:1,1997-03-02T04:00:00Z,27.9396,-96.8429,2.0,225.8607765,14.11544544,-99999.0,'11111222,11111222,99999999' 
TABS,ioos:station:wmo:42048:1,1997-03-02T04:30:00Z,27.9396,-96.8429,2.0,252.6655071,12.01571055,-99999.0,'11111222,11111222,99999999' 
TABS,ioos:station:wmo:42048:1,1997-03-02T05:00:00Z,27.9396,-96.8429,2.0,282.4783082,15.87497717,-99999.0,'11111222,11111222,99999999' 
TABS,ioos:station:wmo:42048:1,1997-03-02T05:30:00Z,27.9396,-96.8429,2.0,278.9081892,20.21380222,-99999.0,'11111222,11111222,99999999' 
TABS,ioos:station:wmo:42048:1,1997-03-02T06:00:00Z,27.9396,-96.8429,2.0,280.1614853,16.04160216,-99999.0,'11111222,11111222,99999999' 
TABS,ioos:station:wmo:42048:1,1997-03-02T06:30:00Z,27.9396,-96.8429,2.0,283.5428554,17.16730905,-99999.0,'11111222,11111222,99999999' 
TABS,ioos:station:wmo:42048:1,1997-03-02T07:00:00Z,27.9396,-96.8429,2.0,282.1770366,19.05878538,-99999.0,'11111222,11111222,99999999' 
TABS,ioos:station:wmo:42048:1,1997-03-02T07:30:00Z,27.9396,-96.8429,2.0,282.1146801,18.44065617,-99999.0,'11111222,11111222,99999999' 
TABS,ioos:station:wmo:42048:1,1997-03-02T08:00:00Z,27.9396,-96.8429,2.0,277.075165,16.96919857,-99999.0,'11111222,11111222,99999999' 
TABS,ioos:station:wmo:42048:1,1997-03-02T08:30:00Z,27.9396,-96.8429,2.0,279.4676709,19.02918285,-99999.0,'11111222,11111222,99999999' 
TABS,ioos:station:wmo:42048:1,1997-03-02T09:00:00Z,27.9396,-96.8429,2.0,272.0123212,12.81790154,-99999.0,'11111222,11111222,99999999' 
TABS,ioos:station:wmo:42048:1,1997-03-02T09:30:00Z,27.9396,-96.8429,2.0,271.3578836,12.663554,-99999.0,'11111222,11111222,99999999' 
TABS,ioos:station:wmo:42048:1,1997-03-02T10:00:00Z,27.9396,-96.8429,2.0,268.0559027,13.26763355,-99999.0,'11111222,11111222,99999999' 
TABS,ioos:station:wmo:42048:1,1997-03-02T10:30:00Z,27.9396,-96.8429,2.0,284.8462801,15.1042014,-99999.0,'11111222,11111222,99999999' 
TABS,ioos:station:wmo:42048:1,1997-03-02T11:00:00Z,27.9396,-96.8429,2.0,292.4788265,18.70082618,-99999.0,'11111222,11111222,99999999' 
TABS,ioos:station:wmo:42048:1,1997-03-02T11:30:00Z,27.9396,-96.8429,2.0,312.2998634,22.36233664,-99999.0,'11111222,11111222,99999999' 
TABS,ioos:station:wmo:42048:1,1997-03-02T12:00:00Z,27.9396,-96.8429,2.0,331.0157178,9.534149149,-99999.0,'11133222,11111222,99999999' 
TABS,ioos:station:wmo:42048:1,1997-03-02T12:30:00Z,27.9396,-96.8429,2.0,132.9397886,5.901084646,-99999.0,'11133222,11111222,99999999' 
TABS,ioos:station:wmo:42048:1,1997-03-02T13:00:00Z,27.9396,-96.8429,2.0,169.485024,18.79561917,-99999.0,'11111222,11111222,99999999' 
TABS,ioos:station:wmo:42048:1,1997-03-02T13:30:00Z,27.9396,-96.8429,2.0,173.6713343,21.59157243,-99999.0,'11111222,11111222,99999999' 
TABS,ioos:station:wmo:42048:1,1997-03-02T14:00:00Z,27.9396,-96.8429,2.0,169.3696871,20.16608043,-99999.0,'11111222,11111222,99999999' 
TABS,ioos:station:wmo:42048:1,1997-03-02T14:30:00Z,27.9396,-96.8429,2.0,182.3913197,21.32857707,-99999.0,'11111222,11111222,99999999' 
TABS,ioos:station:wmo:42048:1,1997-03-02T15:00:00Z,27.9396,-96.8429,2.0,192.9777476,23.24372819,-99999.0,'11111222,11111222,99999999' 
TABS,ioos:station:wmo:42048:1,1997-03-02T15:30:00Z,27.9396,-96.8429,2.0,196.3376301,20.65401898,-99999.0,'11111222,11111222,99999999' 
TABS,ioos:station:wmo:42048:1,1997-03-02T16:00:00Z,27.9396,-96.8429,2.0,215.9390477,16.74820886,-99999.0,'11111222,11111222,99999999' 
TABS,ioos:station:wmo:42048:1,1997-03-02T16:30:00Z,27.9396,-96.8429,2.0,216.3569019,16.09264428,-99999.0,'11111222,11111222,99999999' 
TABS,ioos:station:wmo:42048:1,1997-03-02T17:00:00Z,27.9396,-96.8429,2.0,233.1297677,14.9,-99999.0,'11111222,11111222,99999999' 
TABS,ioos:station:wmo:42048:1,1997-03-02T17:30:00Z,27.9396,-96.8429,2.0,227.7143865,13.28730597,-99999.0,'11111222,11111222,99999999' 
TABS,ioos:station:wmo:42048:1,1997-03-02T18:00:00Z,27.9396,-96.8429,2.0,233.6499852,19.60480808,-99999.0,'11111222,11111222,99999999' 
TABS,ioos:station:wmo:42048:1,1997-03-02T18:30:00Z,27.9396,-96.8429,2.0,221.7166602,23.9536636,-99999.0,'11111222,11111222,99999999' 
TABS,ioos:station:wmo:42048:1,1997-03-02T19:00:00Z,27.9396,-96.8429,2.0,224.9996843,20.43538598,-99999.0,'11111222,11111222,99999999' 
TABS,ioos:station:wmo:42048:1,1997-03-02T19:30:00Z,27.9396,-96.8429,2.0,213.6897783,16.65764689,-99999.0,'11111222,11111222,99999999' 
TABS,ioos:station:wmo:42048:1,1997-03-02T20:00:00Z,27.9396,-96.8429,2.0,220.9213961,11.83157217,-99999.0,'11111222,11111222,99999999' 
TABS,ioos:station:wmo:42048:1,1997-03-02T20:30:00Z,27.9396,-96.8429,2.0,205.7164352,22.65385177,-99999.0,'11111222,11111222,99999999' 
TABS,ioos:station:wmo:42048:1,1997-03-02T21:00:00Z,27.9396,-96.8429,2.0,213.0166108,17.232951,-99999.0,'11111222,11111222,99999999' 
TABS,ioos:station:wmo:42048:1,1997-03-02T21:30:00Z,27.9396,-96.8429,2.0,202.531377,10.49078167,-99999.0,'11111222,11111222,99999999' 
TABS,ioos:station:wmo:42048:1,1997-03-02T22:00:00Z,27.9396,-96.8429,2.0,220.1224172,7.401925425,-99999.0,'11133222,11111222,99999999' 
TABS,ioos:station:wmo:42048:1,1997-03-02T22:30:00Z,27.9396,-96.8429,2.0,222.693723,10.54442981,-99999.0,'11111222,11111222,99999999' 
TABS,ioos:station:wmo:42048:1,1997-03-02T23:00:00Z,27.9396,-96.8429,2.0,223.2870357,10.64671311,-99999.0,'11111222,11111222,99999999' 
TABS,ioos:station:wmo:42048:1,1997-03-02T23:30:00Z,27.9396,-96.8429,2.0,212.8226047,16.49312584,-99999.0,'11111222,11111222,99999999' 
TABS,ioos:station:wmo:42048:1,1997-03-03T00:00:00Z,27.9396,-96.8429,2.0,222.8386099,19.50173326,-99999.0,'11111222,11111222,99999999' 
TABS,ioos:station:wmo:42048:1,1997-03-03T00:30:00Z,27.9396,-96.8429,2.0,220.5782529,40.99985976,-99999.0,'11111222,11111222,99999999' 
TABS,ioos:station:wmo:42048:1,1997-03-03T01:00:00Z,27.9396,-96.8429,2.0,224.7112858,42.14409804,-99999.0,'11111222,11111222,99999999' 
TABS,ioos:station:wmo:42048:1,1997-03-03T01:30:00Z,27.9396,-96.8429,2.0,232.907799,45.94634479,-99999.0,'11111222,11111222,99999999' 
TABS,ioos:station:wmo:42048:1,1997-03-03T02:00:00Z,27.9396,-96.8429,2.0,239.5448071,46.14694464,-99999.0,'11111222,11111222,99999999' 
TABS,ioos:station:wmo:42048:1,1997-03-03T02:30:00Z,27.9396,-96.8429,2.0,242.6561804,43.78177932,-99999.0,'11111222,11111222,99999999' 
TABS,ioos:station:wmo:42048:1,1997-03-03T03:00:00Z,27.9396,-96.8429,2.0,245.1513842,44.33429598,-99999.0,'11111222,11111222,99999999' 
TABS,ioos:station:wmo:42048:1,1997-03-03T03:30:00Z,27.9396,-96.8429,2.0,240.9923869,47.01802208,-99999.0,'11111222,11111222,99999999' 
TABS,ioos:station:wmo:42048:1,1997-03-03T04:00:00Z,27.9396,-96.8429,2.0,248.464803,47.89320307,-99999.0,'11111222,11111222,99999999' 
TABS,ioos:station:wmo:42048:1,1997-03-03T04:30:00Z,27.9396,-96.8429,2.0,254.2803939,40.71261475,-99999.0,'11111222,11111222,99999999' 
TABS,ioos:station:wmo:42048:1,1997-03-03T05:00:00Z,27.9396,-96.8429,2.0,262.7822168,43.85749879,-99999.0,'11111222,11111222,99999999' 
TABS,ioos:station:wmo:42048:1,1997-03-03T05:30:00Z,27.9396,-96.8429,2.0,262.1339805,41.35911629,-99999.0,'11111222,11111222,99999999' 
TABS,ioos:station:wmo:42048:1,1997-03-03T06:00:00Z,27.9396,-96.8429,2.0,264.7562801,45.63093797,-99999.0,'11111222,11111222,99999999' 
TABS,ioos:station:wmo:42048:1,1997-03-03T06:30:00Z,27.9396,-96.8429,2.0,263.6135956,45.58283559,-99999.0,'11111222,11111222,99999999' 
TABS,ioos:station:wmo:42048:1,1997-03-03T07:00:00Z,27.9396,-96.8429,2.0,261.3670616,43.70512213,-99999.0,'11111222,11111222,99999999' 
TABS,ioos:station:wmo:42048:1,1997-03-03T07:30:00Z,27.9396,-96.8429,2.0,262.1904491,41.65631405,-99999.0,'11111222,11111222,99999999' 
TABS,ioos:station:wmo:42048:1,1997-03-03T08:00:00Z,27.9396,-96.8429,2.0,261.2205472,37.08447249,-99999.0,'11111222,11111222,99999999' 
TABS,ioos:station:wmo:42048:1,1997-03-03T08:30:00Z,27.9396,-96.8429,2.0,261.4840609,37.210215,-99999.0,'11111222,11111222,99999999' 
TABS,ioos:station:wmo:42048:1,1997-03-03T09:00:00Z,27.9396,-96.8429,2.0,258.7777298,38.28191479,-99999.0,'11111222,11111222,99999999' 
TABS,ioos:station:wmo:42048:1,1997-03-03T09:30:00Z,27.9396,-96.8429,2.0,257.4400094,36.32934902,-99999.0,'11111222,11111222,99999999' 
TABS,ioos:station:wmo:42048:1,1997-03-03T10:00:00Z,27.9396,-96.8429,2.0,256.7269016,35.67288186,-99999.0,'11111222,11111222,99999999' 
TABS,ioos:station:wmo:42048:1,1997-03-03T10:30:00Z,27.9396,-96.8429,2.0,254.7512185,37.37582775,-99999.0,'11111222,11111222,99999999' 
TABS,ioos:station:wmo:42048:1,1997-03-03T11:00:00Z,27.9396,-96.8429,2.0,250.5844061,35.85915225,-99999.0,'11111222,11111222,99999999' 
TABS,ioos:station:wmo:42048:1,1997-03-03T11:30:00Z,27.9396,-96.8429,2.0,250.3479757,35.44447489,-99999.0,'11111222,11111222,99999999' 
TABS,ioos:station:wmo:42048:1,1997-03-03T12:00:00Z,27.9396,-96.8429,2.0,248.5572037,35.86218761,-99999.0,'11111222,11111222,99999999' 
TABS,ioos:station:wmo:42048:1,1997-03-03T12:30:00Z,27.9396,-96.8429,2.0,249.74147,33.99271981,-99999.0,'11111222,11111222,99999999' 
TABS,ioos:station:wmo:42048:1,1997-03-03T13:00:00Z,27.9396,-96.8429,2.0,248.2489535,29.36030143,-99999.0,'11111222,11111222,99999999' 
TABS,ioos:station:wmo:42048:1,1997-03-03T13:30:00Z,27.9396,-96.8429,2.0,253.1627558,35.49139755,-99999.0,'11111222,11111222,99999999' 
TABS,ioos:station:wmo:42048:1,1997-03-03T14:00:00Z,27.9396,-96.8429,2.0,251.9417435,36.51877325,-99999.0,'11111222,11111222,99999999' 
TABS,ioos:station:wmo:42048:1,1997-03-03T14:30:00Z,27.9396,-96.8429,2.0,251.3445232,35.38931053,-99999.0,'11111222,11111222,99999999' 
TABS,ioos:station:wmo:42048:1,1997-03-03T15:00:00Z,27.9396,-96.8429,2.0,245.8354202,22.20575826,-99999.0,'11111222,11111222,99999999' 
TABS,ioos:station:wmo:42048:1,1997-03-03T15:30:00Z,27.9396,-96.8429,2.0,244.0975766,23.1895774,-99999.0,'11111222,11111222,99999999' 
TABS,ioos:station:wmo:42048:1,1997-03-03T16:00:00Z,27.9396,-96.8429,2.0,172.4552096,22.69648431,-99999.0,'11111222,11111222,99999999' 
TABS,ioos:station:wmo:42048:1,1997-03-03T16:30:00Z,27.9396,-96.8429,2.0,182.8746065,20.73609655,-99999.0,'11111222,11111222,99999999' 
TABS,ioos:station:wmo:42048:1,1997-03-03T17:00:00Z,27.9396,-96.8429,2.0,183.7838224,20.30426556,-99999.0,'11111222,11111222,99999999' 
TABS,ioos:station:wmo:42048:1,1997-03-03T17:30:00Z,27.9396,-96.8429,2.0,175.1602805,19.43930297,-99999.0,'11111222,11111222,99999999' 
TABS,ioos:station:wmo:42048:1,1997-03-03T18:00:00Z,27.9396,-96.8429,2.0,182.4850199,17.29626838,-99999.0,'11111222,11111222,99999999' 
TABS,ioos:station:wmo:42048:1,1997-03-03T18:30:00Z,27.9396,-96.8429,2.0,179.9997895,18.18,-99999.0,'11111222,11111222,99999999' 
TABS,ioos:station:wmo:42048:1,1997-03-03T19:00:00Z,27.9396,-96.8429,2.0,179.9997895,17.28,-99999.0,'11111222,11111222,99999999' 
TABS,ioos:station:wmo:42048:1,1997-03-03T19:30:00Z,27.9396,-96.8429,2.0,181.8022046,14.30707867,-99999.0,'11111222,11111222,99999999' 
TABS,ioos:station:wmo:42048:1,1997-03-03T20:00:00Z,27.9396,-96.8429,2.0,183.713989,13.7388573,-99999.0,'11111222,11111222,99999999' 
TABS,ioos:station:wmo:42048:1,1997-03-03T20:30:00Z,27.9396,-96.8429,2.0,188.95576,14.3246431,-99999.0,'11111222,11111222,99999999' 
TABS,ioos:station:wmo:42048:1,1997-03-03T21:00:00Z,27.9396,-96.8429,2.0,185.7484395,7.487656509,-99999.0,'11133222,11111222,99999999' 
TABS,ioos:station:wmo:42048:1,1997-03-03T21:30:00Z,27.9396,-96.8429,2.0,190.0328866,14.52208318,-99999.0,'11111222,11111222,99999999' 
TABS,ioos:station:wmo:42048:1,1997-03-03T22:00:00Z,27.9396,-96.8429,2.0,192.3460172,14.63854159,-99999.0,'11111222,11111222,99999999' 
TABS,ioos:station:wmo:42048:1,1997-03-03T22:30:00Z,27.9396,-96.8429,2.0,188.8582693,13.57189007,-99999.0,'11111222,11111222,99999999' 
TABS,ioos:station:wmo:42048:1,1997-03-03T23:00:00Z,27.9396,-96.8429,2.0,190.4674425,12.27427391,-99999.0,'11111222,11111222,99999999' 
TABS,ioos:station:wmo:42048:1,1997-03-03T23:30:00Z,27.9396,-96.8429,2.0,198.4106518,7.535708328,-99999.0,'11133222,11111222,99999999' 
TABS,ioos:station:wmo:42048:1,1997-03-04T00:00:00Z,27.9396,-96.8429,2.0,200.4234835,8.10980271,-99999.0,'11133222,11111222,99999999' 
TABS,ioos:station:wmo:42048:1,1997-03-04T00:30:00Z,27.9396,-96.8429,2.0,217.7919539,10.93341667,-99999.0,'11111222,11111222,99999999' 
TABS,ioos:station:wmo:42048:1,1997-03-04T01:00:00Z,27.9396,-96.8429,2.0,217.392073,10.30842859,-99999.0,'11111222,11111222,99999999' 
TABS,ioos:station:wmo:42048:1,1997-03-04T01:30:00Z,27.9396,-96.8429,2.0,228.9905881,10.66782546,-99999.0,'11111222,11111222,99999999' 
TABS,ioos:station:wmo:42048:1,1997-03-04T02:00:00Z,27.9396,-96.8429,2.0,234.6595548,8.765124072,-99999.0,'11133222,11111222,99999999' 
TABS,ioos:station:wmo:42048:1,1997-03-04T02:30:00Z,27.9396,-96.8429,2.0,235.1369448,10.16423632,-99999.0,'11111222,11111222,99999999' 
TABS,ioos:station:wmo:42048:1,1997-03-04T03:00:00Z,27.9396,-96.8429,2.0,243.0789971,11.52938854,-99999.0,'11111222,11111222,99999999' 
TABS,ioos:station:wmo:42048:1,1997-03-04T03:30:00Z,27.9396,-96.8429,2.0,241.8541268,11.99883328,-99999.0,'11111222,11111222,99999999' 
TABS,ioos:station:wmo:42048:1,1997-03-04T04:00:00Z,27.9396,-96.8429,2.0,245.1079703,11.33275342,-99999.0,'11111222,11111222,99999999' 
TABS,ioos:station:wmo:42048:1,1997-03-04T04:30:00Z,27.9396,-96.8429,2.0,241.0972896,9.86927049,-99999.0,'11133222,11111222,99999999' 
TABS,ioos:station:wmo:42048:1,1997-03-04T05:00:00Z,27.9396,-96.8429,2.0,241.9657927,10.46823767,-99999.0,'11111222,11111222,99999999' 
TABS,ioos:station:wmo:42048:1,1997-03-04T05:30:00Z,27.9396,-96.8429,2.0,243.43459,10.33063406,-99999.0,'11111222,11111222,99999999' 
TABS,ioos:station:wmo:42048:1,1997-03-04T06:00:00Z,27.9396,-96.8429,2.0,248.3101104,13.31252418,-99999.0,'11111222,11111222,99999999' 
TABS,ioos:station:wmo:42048:1,1997-03-04T06:30:00Z,27.9396,-96.8429,2.0,245.4127651,13.60340031,-99999.0,'11111222,11111222,99999999' 
TABS,ioos:station:wmo:42048:1,1997-03-04T07:00:00Z,27.9396,-96.8429,2.0,247.2940712,13.88616938,-99999.0,'11111222,11111222,99999999' 
TABS,ioos:station:wmo:42048:1,1997-03-04T07:30:00Z,27.9396,-96.8429,2.0,242.4894158,11.92880966,-99999.0,'11111222,11111222,99999999' 
TABS,ioos:station:wmo:42048:1,1997-03-04T08:00:00Z,27.9396,-96.8429,2.0,243.7350889,12.79048474,-99999.0,'11111222,11111222,99999999' 
TABS,ioos:station:wmo:42048:1,1997-03-04T08:30:00Z,27.9396,-96.8429,2.0,233.9200635,12.90522762,-99999.0,'11111222,11111222,99999999' 
TABS,ioos:station:wmo:42048:1,1997-03-04T09:00:00Z,27.9396,-96.8429,2.0,231.1579915,13.77615694,-99999.0,'11111222,11111222,99999999' 
TABS,ioos:station:wmo:42048:1,1997-03-04T09:30:00Z,27.9396,-96.8429,2.0,226.7443401,13.70301062,-99999.0,'11111222,11111222,99999999' 
TABS,ioos:station:wmo:42048:1,1997-03-04T10:00:00Z,27.9396,-96.8429,2.0,221.5523055,12.34721426,-99999.0,'11111222,11111222,99999999' 
TABS,ioos:station:wmo:42048:1,1997-03-04T10:30:00Z,27.9396,-96.8429,2.0,221.0624684,12.25479906,-99999.0,'11111222,11111222,99999999' 
TABS,ioos:station:wmo:42048:1,1997-03-04T11:00:00Z,27.9396,-96.8429,2.0,208.9756121,14.13999293,-99999.0,'11111222,11111222,99999999' 
TABS,ioos:station:wmo:42048:1,1997-03-04T11:30:00Z,27.9396,-96.8429,2.0,217.4643441,14.45077853,-99999.0,'11111222,11111222,99999999' 
TABS,ioos:station:wmo:42048:1,1997-03-04T12:00:00Z,27.9396,-96.8429,2.0,207.9600665,16.52944343,-99999.0,'11111222,11111222,99999999' 
TABS,ioos:station:wmo:42048:1,1997-03-04T12:30:00Z,27.9396,-96.8429,2.0,207.0372085,15.72903684,-99999.0,'11111222,11111222,99999999' 
TABS,ioos:station:wmo:42048:1,1997-03-04T13:00:00Z,27.9396,-96.8429,2.0,211.2949141,17.78813087,-99999.0,'11111222,11111222,99999999' 
TABS,ioos:station:wmo:42048:1,1997-03-04T13:30:00Z,27.9396,-96.8429,2.0,209.6145319,17.48398124,-99999.0,'11111222,11111222,99999999' 
TABS,ioos:station:wmo:42048:1,1997-03-04T14:00:00Z,27.9396,-96.8429,2.0,209.0573491,18.4068384,-99999.0,'11111222,11111222,99999999' 
TABS,ioos:station:wmo:42048:1,1997-03-04T14:30:00Z,27.9396,-96.8429,2.0,210.0400622,17.55859049,-99999.0,'11111222,11111222,99999999' 
TABS,ioos:station:wmo:42048:1,1997-03-04T15:00:00Z,27.9396,-96.8429,2.0,207.9384483,19.40122934,-99999.0,'11111222,11111222,99999999' 
TABS,ioos:station:wmo:42048:1,1997-03-04T15:30:00Z,27.9396,-96.8429,2.0,204.6745193,20.33692455,-99999.0,'11111222,11111222,99999999' 
TABS,ioos:station:wmo:42048:1,1997-03-04T16:00:00Z,27.9396,-96.8429,2.0,216.1884431,22.71160496,-99999.0,'11111222,11111222,99999999' 